Date String (YYYY-MM-DD hh:mm:ss) UTC,Instrument flags,Ambient pressure (hPa),Sample flow (lpm),Bypass flow (lpm),Sample temperature (°C),Ambient temperature (°C),ASC tube jacket temperature (°C),LED temperature (°C),Box temperature (°C),Sample RH (%),Span deviation,Mass concentration (μg/m³),Mass concentration (μg/m³),Mass concentration (μg/m³)
DateTimeUTC,F1_M11,P_M11,Q1_M11,Q2_M11,T1_M11,T2_M11,T3_M11,T4_M11,T5_M11,U1_M11,ZSPAN_M11,X2_M11,X0_M11,X1_M11
2021-09-03 18:00:00,,0829.2,5.00,0.00,29.5,26.5,00.0,38.7,31.0,32.8,0001.2,0018.12,0024.19,0017.11
2021-09-03 18:01:00,,0829.3,5.02,0.00,29.5,27.0,00.0,38.7,31.1,33.1,0001.3,0018.18,0024.43,0017.20
2021-09-03 18:02:00,,0829.3,4.99,0.00,29.5,27.4,00.0,38.7,31.2,32.8,0001.1,0018.35,0024.58,0017.31
2021-09-03 18:03:00,,0829.3,5.01,0.00,29.5,27.8,00.0,38.7,31.3,32.7,0001.1,0018.38,0024.63,0017.40
2021-09-03 18:04:00,,0829.3,4.99,0.00,29.6,28.2,00.0,38.7,31.4,33.0,0001.1,0018.43,0025.68,0017.45
2021-09-03 18:05:00,,0829.3,5.00,0.00,29.6,28.4,00.0,38.7,31.5,32.2,0001.1,0018.46,0026.45,0017.46
2021-09-03 18:06:00,,0829.2,4.99,0.00,29.7,28.7,00.0,38.7,31.6,32.3,0001.2,0018.52,0026.88,0017.52
2021-09-03 18:07:00,,0829.2,5.02,0.00,29.8,28.8,00.0,38.7,31.7,32.7,0001.3,0018.56,0028.01,0017.56
2021-09-03 18:08:00,,0829.1,5.00,0.00,29.8,28.3,00.0,38.7,31.5,32.7,0001.3,0018.61,0028.15,0017.59
2021-09-03 18:09:00,,0829.1,4.99,0.00,29.7,26.6,00.0,38.7,31.1,32.8,0001.4,0018.67,0028.08,0017.62
2021-09-03 18:10:00,,0829.1,5.00,0.00,29.5,26.1,00.0,38.7,30.9,33.1,0001.5,0018.77,0028.08,0017.69
2021-09-03 18:11:00,,0829.0,5.00,0.00,29.5,26.3,00.0,38.7,31.0,33.6,0001.6,0018.84,0028.01,0017.73
2021-09-03 18:12:00,,0829.0,5.00,0.00,29.4,26.8,00.0,38.6,31.0,33.7,0001.7,0018.84,0028.38,0017.75
2021-09-03 18:13:00,,0828.9,5.01,0.00,29.4,27.3,00.0,38.6,31.1,33.6,0001.9,0018.78,0028.05,0017.75
2021-09-03 18:14:00,,0828.9,5.00,0.00,29.5,27.7,00.0,38.6,31.2,33.9,0002.0,0018.79,0027.77,0017.74
2021-09-03 18:15:00,,0828.9,5.01,0.00,29.5,28.0,00.0,38.6,31.3,33.9,0002.0,0018.84,0026.88,0017.71
2021-09-03 18:16:00,,0828.8,4.99,0.00,29.6,28.3,00.0,38.6,31.4,33.3,0002.0,0018.86,0026.52,0017.72
2021-09-03 18:17:00,,0828.8,5.00,0.00,29.6,28.5,00.0,38.6,31.5,32.8,0001.8,0018.81,0026.48,0017.71
2021-09-03 18:18:00,,0828.9,5.01,0.00,29.7,28.7,00.0,38.6,31.6,32.6,0001.8,0018.78,0025.28,0017.70
2021-09-03 18:19:00,,0828.9,4.99,0.00,29.7,28.8,00.0,38.6,31.6,32.4,0001.9,0018.77,0024.81,0017.72
2021-09-03 18:20:00,,0829.0,5.00,0.00,29.8,28.6,00.0,38.7,31.6,32.5,0001.8,0018.80,0025.62,0017.70
2021-09-03 18:21:00,,0828.9,5.00,0.00,29.7,27.1,00.0,38.7,31.2,32.6,0001.8,0018.79,0027.17,0017.70
2021-09-03 18:22:00,,0828.9,5.01,0.00,29.5,26.1,00.0,38.6,30.9,33.1,0002.0,0018.75,0027.30,0017.66
2021-09-03 18:23:00,,0828.9,4.99,0.00,29.5,26.2,00.0,38.6,30.9,33.3,0001.9,0018.69,0027.25,0017.61
2021-09-03 18:24:00,,0828.9,5.01,0.00,29.4,26.7,00.0,38.6,31.0,33.0,0001.7,0018.63,0028.20,0017.55
2021-09-03 18:25:00,,0828.9,5.00,0.00,29.4,27.1,00.0,38.6,31.1,32.9,0001.7,0018.61,0028.95,0017.53
2021-09-03 18:26:00,,0828.9,5.00,0.00,29.4,27.5,00.0,38.5,31.2,32.9,0001.7,0018.58,0029.09,0017.56
2021-09-03 18:27:00,,0828.9,5.01,0.00,29.5,27.9,00.0,38.5,31.3,33.2,0001.6,0018.57,0028.72,0017.57
2021-09-03 18:28:00,,0828.9,4.99,0.00,29.5,28.2,00.0,38.5,31.3,32.8,0001.8,0018.65,0028.80,0017.59
2021-09-03 18:29:00,,0828.9,5.01,0.00,29.5,28.4,00.0,38.5,31.4,32.9,0001.7,0018.70,0029.95,0017.61
2021-09-03 18:30:00,,0828.9,5.01,0.00,29.6,28.6,00.0,38.6,31.5,32.4,0001.6,0018.68,0030.44,0017.61
2021-09-03 18:31:00,,0829.0,4.99,0.00,29.7,28.8,00.0,38.6,31.5,32.3,0001.6,0018.66,0030.47,0017.59
2021-09-03 18:32:00,,0829.0,5.00,0.00,29.7,28.9,00.0,38.6,31.6,32.6,0001.4,0018.60,0029.82,0017.56
2021-09-03 18:33:00,,0829.0,5.02,0.00,29.7,28.4,00.0,38.6,31.5,32.6,0001.3,0018.57,0029.60,0017.56
2021-09-03 18:34:00,,0829.0,5.00,0.00,29.6,26.7,00.0,38.6,31.0,32.8,0001.4,0018.61,0029.81,0017.58
2021-09-03 18:35:00,,0829.0,5.00,0.00,29.5,26.0,00.0,38.6,30.8,33.2,0001.1,0018.61,0029.09,0017.60
2021-09-03 18:36:00,,0829.0,4.99,0.00,29.4,26.2,00.0,38.6,30.9,33.8,0001.1,0018.59,0028.95,0017.62
2021-09-03 18:37:00,,0829.0,5.00,0.00,29.3,26.7,00.0,38.5,30.9,33.9,0001.0,0018.64,0029.52,0017.69
2021-09-03 18:38:00,,0829.0,5.00,0.00,29.3,27.1,00.0,38.5,31.0,33.9,0000.8,0018.75,0030.63,0017.74
2021-09-03 18:39:00,,0829.0,5.01,0.00,29.4,27.5,00.0,38.5,31.1,34.0,0000.8,0018.81,0031.21,0017.77
2021-09-03 18:40:00,,0829.0,4.99,0.00,29.4,27.8,00.0,38.5,31.2,34.0,0000.7,0018.83,0030.39,0017.78
2021-09-03 18:41:00,,0829.1,5.00,0.00,29.5,28.1,00.0,38.5,31.3,33.6,0000.6,0018.83,0029.86,0017.78
2021-09-03 18:42:00,,0829.1,5.01,0.00,29.5,28.4,00.0,38.5,31.4,33.5,0000.5,0018.81,0028.99,0017.78
2021-09-03 18:43:00,,0829.1,4.99,0.00,29.6,28.5,00.0,38.5,31.4,33.3,0000.7,0018.89,0028.15,0017.80
2021-09-03 18:44:00,,0829.0,4.99,0.00,29.6,28.7,00.0,38.6,31.5,32.8,0000.6,0018.93,0028.52,0017.80
2021-09-03 18:45:00,,0829.1,5.00,0.00,29.7,28.8,00.0,38.6,31.6,32.8,0000.7,0018.96,0028.28,0017.81
2021-09-03 18:46:00,,0829.1,5.01,0.00,29.7,28.7,00.0,38.6,31.5,32.6,0000.7,0018.96,0028.04,0017.81
2021-09-03 18:47:00,,0829.1,5.00,0.00,29.6,27.1,00.0,38.6,31.1,32.7,0000.6,0018.94,0027.74,0017.77
2021-09-03 18:48:00,,0829.1,5.00,0.00,29.5,25.9,00.0,38.6,30.8,33.0,0000.4,0018.89,0026.93,0017.70
2021-09-03 18:49:00,,0829.0,5.00,0.00,29.4,25.9,00.0,38.6,30.8,33.3,0000.5,0018.79,0026.06,0017.63
2021-09-03 18:50:00,,0829.1,5.01,0.00,29.3,26.3,00.0,38.5,30.8,33.8,0000.4,0018.68,0025.23,0017.57
2021-09-03 18:51:00,,0829.1,5.00,0.00,29.3,26.8,00.0,38.5,30.9,33.8,0000.5,0018.67,0025.97,0017.58
2021-09-03 18:52:00,,0829.1,4.99,0.00,29.3,27.2,00.0,38.5,31.0,34.4,0000.5,0018.72,0026.45,0017.61
2021-09-03 18:53:00,,0829.2,5.00,0.00,29.3,27.6,00.0,38.5,31.1,34.4,0000.7,0018.81,0026.73,0017.68
2021-09-03 18:54:00,,0829.2,5.00,0.00,29.4,27.9,00.0,38.5,31.2,34.3,0000.6,0018.81,0026.78,0017.73
2021-09-03 18:55:00,,0829.2,5.00,0.00,29.4,28.2,00.0,38.5,31.3,34.1,0000.4,0018.83,0027.09,0017.79
2021-09-03 18:56:00,,0829.2,5.00,0.00,29.5,28.3,00.0,38.5,31.3,34.1,0000.3,0018.84,0027.10,0017.84
2021-09-03 18:57:00,,0829.2,5.00,0.00,29.5,28.5,00.0,38.5,31.4,34.4,0000.5,0018.88,0027.51,0017.87
2021-09-03 18:58:00,,0829.2,4.99,0.00,29.6,28.6,00.0,38.5,31.4,34.1,0000.6,0018.94,0028.28,0017.90
2021-09-03 18:59:00,,0829.3,5.02,0.00,29.6,28.8,00.0,38.6,31.5,34.1,0000.7,0018.93,0028.31,0017.92
